• En Colombia
  • Lista de países
  • Para 7 días
  • Temperatura del agua
  • El tiempo en el mapa
  • Informadores
  • user-avatar
    Iniciar sesión

    Tiempo cada hora Djelfa

    Hoy, 18 Febrero, Martes

    Tiempo Temperatura Precipitaciones Viento Presión Humedad
    00:00 +9°C° 0 mm 0 mps 670 mmHg 61%
    01:00 +10°C° 0 mm 1 mps 669 mmHg 63%
    02:00 +10°C° 0 mm 1 mps 669 mmHg 65%
    03:00 +9°C° 0 mm 1 mps 669 mmHg 68%
    04:00 +9°C° 0 mm 1 mps 669 mmHg 72%
    05:00 +9°C° 0 mm 1 mps 669 mmHg 76%
    06:00 +8°C° 0 mm 1 mps 669 mmHg 81%
    07:00 +10°C° 0 mm 1 mps 669 mmHg 74%
    08:00 +11°C° 0 mm 1 mps 670 mmHg 67%
    09:00 +13°C° 0 mm 1 mps 671 mmHg 60%
    10:00 +14°C° 0 mm 1 mps 671 mmHg 53%
    11:00 +15°C° 0 mm 1 mps 671 mmHg 46%
    12:00 +16°C° 0 mm 2 mps 671 mmHg 39%
    13:00 +17°C° 0 mm 2 mps 671 mmHg 37%
    14:00 +17°C° 0 mm 2 mps 670 mmHg 35%
    15:00 +18°C° 0 mm 2 mps 670 mmHg 33%
    16:00 +17°C° 0 mm 2 mps 670 mmHg 36%
    17:00 +15°C° 0 mm 2 mps 670 mmHg 40%
    18:00 +14°C° 0 mm 2 mps 669 mmHg 43%
    19:00 +13°C° 0 mm 1 mps 669 mmHg 47%
    20:00 +12°C° 0 mm 1 mps 670 mmHg 52%
    21:00 +11°C° 0 mm 0 mps 670 mmHg 56%
    22:00 +11°C° 0 mm 1 mps 670 mmHg 56%
    23:00 +11°C° 0 mm 1 mps 669 mmHg 57%

    Mañana, 19 Febrero, Miércoles

    Tiempo Temperatura Precipitaciones Viento Presión Humedad
    00:00 +10°C° 0 mm 2 mps 669 mmHg 57%
    01:00 +9°C° 0 mm 2 mps 669 mmHg 61%
    02:00 +9°C° 0 mm 2 mps 669 mmHg 64%
    03:00 +9°C° 0 mm 1 mps 668 mmHg 68%
    04:00 +9°C° 0 mm 1 mps 668 mmHg 69%
    05:00 +8°C° 0 mm 1 mps 668 mmHg 70%
    06:00 +8°C° 0 mm 1 mps 668 mmHg 71%
    07:00 +9°C° 0 mm 1 mps 669 mmHg 65%
    08:00 +11°C° 0 mm 1 mps 670 mmHg 58%
    09:00 +12°C° 0 mm 2 mps 670 mmHg 52%
    10:00 +13°C° 0 mm 2 mps 670 mmHg 50%
    11:00 +14°C° 0 mm 2 mps 670 mmHg 48%
    12:00 +15°C° 0 mm 2 mps 670 mmHg 46%
    13:00 +15°C° 0 mm 2 mps 670 mmHg 45%
    14:00 +14°C° 0 mm 3 mps 670 mmHg 44%
    15:00 +16°C° 0 mm 3 mps 669 mmHg 43%
    16:00 +14°C° 0 mm 3 mps 669 mmHg 50%
    17:00 +12°C° 0 mm 3 mps 669 mmHg 57%
    18:00 +11°C° 0 mm 3 mps 668 mmHg 64%
    19:00 +11°C° 0 mm 3 mps 669 mmHg 68%
    20:00 +10°C° 0 mm 3 mps 669 mmHg 72%
    21:00 +10°C° 0 mm 2 mps 669 mmHg 75%
    22:00 +9°C° 0 mm 2 mps 669 mmHg 78%
    23:00 +9°C° 0 mm 2 mps 669 mmHg 81%

    Pasado mañana, 20 Febrero, Jueves

    Tiempo Temperatura Precipitaciones Viento Presión Humedad
    00:00 +9°C° 0 mm 1 mps 669 mmHg 84%
    01:00 +9°C° 0 mm 1 mps 668 mmHg 85%
    02:00 +8°C° 0 mm 1 mps 668 mmHg 86%
    03:00 +8°C° 0 mm 1 mps 667 mmHg 87%
    04:00 +8°C° 0 mm 1 mps 667 mmHg 87%
    05:00 +7°C° 0 mm 1 mps 667 mmHg 88%
    06:00 +7°C° 0 mm 1 mps 666 mmHg 88%
    07:00 +8°C° 0 mm 1 mps 667 mmHg 79%
    08:00 +9°C° 0 mm 2 mps 668 mmHg 70%
    09:00 +10°C° 0 mm 2 mps 668 mmHg 61%
    10:00 +12°C° 0 mm 2 mps 668 mmHg 55%
    11:00 +12°C° 0 mm 3 mps 668 mmHg 50%
    12:00 +13°C° 0 mm 3 mps 668 mmHg 45%
    13:00 +14°C° 0 mm 3 mps 668 mmHg 43%
    14:00 +14°C° 0 mm 3 mps 667 mmHg 42%
    15:00 +16°C° 0 mm 3 mps 667 mmHg 41%
    16:00 +14°C° 0 mm 3 mps 667 mmHg 45%
    17:00 +13°C° 0 mm 3 mps 667 mmHg 48%
    18:00 +12°C° 0 mm 3 mps 667 mmHg 52%
    19:00 +12°C° 0 mm 4 mps 667 mmHg 55%
    20:00 +11°C° 0 mm 4 mps 667 mmHg 57%
    21:00 +10°C° 0 mm 4 mps 667 mmHg 60%
    22:00 +10°C° 0 mm 4 mps 667 mmHg 62%
    23:00 +8°C° 0 mm 4 mps 667 mmHg 64%

    21 Febrero, Viernes

    Tiempo Temperatura Precipitaciones Viento Presión Humedad
    00:00 +8°C° 0 mm 4 mps 667 mmHg 66%
    01:00 +8°C° 0 mm 4 mps 667 mmHg 67%
    02:00 +8°C° 0 mm 3 mps 667 mmHg 68%
    03:00 +8°C° 0 mm 2 mps 667 mmHg 69%
    04:00 +8°C° 0 mm 2 mps 667 mmHg 69%
    05:00 +8°C° 0 mm 1 mps 667 mmHg 70%
    06:00 +8°C° 0 mm 1 mps 667 mmHg 71%
    13:00 +15°C° 0 mm 2 mps 669 mmHg 38%
    14:00 +15°C° 0 mm 2 mps 669 mmHg 37%
    15:00 +16°C° 0 mm 2 mps 669 mmHg 34%
    16:00 +15°C° 0 mm 2 mps 669 mmHg 38%
    17:00 +14°C° 0 mm 2 mps 669 mmHg 41%
    18:00 +13°C° 0 mm 2 mps 669 mmHg 45%
    19:00 +13°C° 0 mm 2 mps 669 mmHg 49%
    20:00 +12°C° 0 mm 2 mps 669 mmHg 54%
    21:00 +11°C° 0 mm 1 mps 669 mmHg 58%
    22:00 +11°C° 0 mm 1 mps 669 mmHg 59%
    23:00 +10°C° 0 mm 1 mps 669 mmHg 61%

    22 Febrero, Sábado

    Tiempo Temperatura Precipitaciones Viento Presión Humedad
    00:00 +10°C° 0 mm 1 mps 669 mmHg 62%
    01:00 +8°C° 0 mm 0 mps 669 mmHg 64%
    02:00 +8°C° 0 mm 0 mps 669 mmHg 65%
    03:00 +7°C° 0 mm 0 mps 669 mmHg 67%
    04:00 +7°C° 0 mm 0 mps 669 mmHg 69%
    05:00 +6°C° 0 mm 0 mps 669 mmHg 71%
    06:00 +7°C° 0 mm 1 mps 669 mmHg 72%
    07:00 +9°C° 0 mm 1 mps 670 mmHg 65%
    08:00 +10°C° 0 mm 1 mps 671 mmHg 58%
    09:00 +12°C° 0 mm 1 mps 671 mmHg 51%
    10:00 +13°C° 0 mm 1 mps 672 mmHg 46%
    11:00 +14°C° 0 mm 1 mps 672 mmHg 40%
    12:00 +15°C° 0 mm 2 mps 672 mmHg 35%
    13:00 +16°C° 0 mm 1 mps 672 mmHg 33%
    14:00 +16°C° 0 mm 1 mps 671 mmHg 31%
    15:00 +16°C° 0 mm 1 mps 671 mmHg 29%
    16:00 +16°C° 0 mm 1 mps 671 mmHg 33%
    17:00 +15°C° 0 mm 2 mps 671 mmHg 37%
    18:00 +14°C° 0 mm 2 mps 671 mmHg 41%
    19:00 +13°C° 0 mm 2 mps 672 mmHg 46%
    20:00 +12°C° 0 mm 2 mps 672 mmHg 50%
    21:00 +11°C° 0 mm 1 mps 672 mmHg 54%
    22:00 +11°C° 0 mm 1 mps 672 mmHg 55%
    23:00 +9°C° 0 mm 2 mps 672 mmHg 56%

    23 Febrero, Domingo

    Tiempo Temperatura Precipitaciones Viento Presión Humedad
    00:00 +9°C° 0 mm 2 mps 672 mmHg 57%
    01:00 +8°C° 0 mm 2 mps 672 mmHg 58%
    02:00 +8°C° 0 mm 2 mps 672 mmHg 60%
    03:00 +7°C° 0 mm 2 mps 671 mmHg 62%
    04:00 +8°C° 0 mm 1 mps 671 mmHg 61%
    05:00 +8°C° 0 mm 1 mps 671 mmHg 61%
    06:00 +7°C° 0 mm 1 mps 671 mmHg 60%
    07:00 +9°C° 0 mm 1 mps 672 mmHg 53%
    08:00 +11°C° 0 mm 1 mps 673 mmHg 45%
    09:00 +13°C° 0 mm 1 mps 674 mmHg 38%
    10:00 +14°C° 0 mm 2 mps 674 mmHg 35%
    11:00 +15°C° 0 mm 2 mps 674 mmHg 33%
    12:00 +15°C° 0 mm 2 mps 674 mmHg 31%
    13:00 +16°C° 0 mm 2 mps 674 mmHg 30%
    14:00 +16°C° 0 mm 2 mps 674 mmHg 28%
    15:00 +17°C° 0 mm 2 mps 673 mmHg 27%
    16:00 +15°C° 0 mm 2 mps 673 mmHg 31%
    17:00 +14°C° 0 mm 2 mps 673 mmHg 35%
    18:00 +13°C° 0 mm 1 mps 673 mmHg 38%
    19:00 +13°C° 0 mm 2 mps 673 mmHg 40%
    20:00 +12°C° 0 mm 2 mps 673 mmHg 41%
    21:00 +12°C° 0 mm 2 mps 673 mmHg 42%
    22:00 +10°C° 0 mm 2 mps 673 mmHg 44%
    23:00 +10°C° 0 mm 2 mps 673 mmHg 46%
    Mostrar más